Regional Weather Roundup
Issued by NWS

Home | Current Version | Previous Version | Text Only | Print | Product List | Glossary On
Versions: 1 2 3 4 5 6 7 8 9 10 11 12 13 14 15 16 17 18 19 20 21 22 23 24 25 26 27 28 29 30 31 32 33 34 35 36 37 38 39 40 41 42 43 44 45 46 47 48 49 50
327
ASUS45 KTFX 221910
RWRMT
MONTANA REGIONAL WEATHER ROUNDUP
NATIONAL WEATHER SERVICE GREAT FALLS MT
1200 PM MST SUN JAN 22 2017

NOTE: "FAIR" INDICATES FEW OR NO CLOUDS BELOW 12000 FEET WITH NO
SIGNIFICANT WEATHER AND/OR OBSTRUCTIONS TO VISIBILITY.

MTZ001>007-043-222000-
WEST OF THE DIVIDE

CITY           SKY/WX    TMP DP  RH WIND       PRES   REMARKS
KALISPELL      PTSUNNY   27  24  89 CALM      29.76F
MISSOULA       FOG       19  19 100 CALM      29.76F VSB<1/4
BUTTE          SUNNY     18  12  77 SE5       29.76F
MULLAN PASS    CLOUDY    27  23  85 SE8       29.60F FOG     WCI  19
ANACONDA         N/A     34  16  47 SE13G18   29.74F WCI  25
DEER LODGE       N/A     30  18  59 SW8       29.76F WCI  23
EUREKA           N/A     30  27  86 CALM      29.79F
HAMILTON         N/A     25  21  86 CALM      29.73F
PLAINS           N/A     22  17  81 CALM      29.78  VSB 0
RONAN            N/A     26  24  92 CALM      29.81S VSB 0
$$

MTZ008-052>055-222000-
SOUTHWEST MONTANA

CITY           SKY/WX    TMP DP  RH WIND       PRES   REMARKS
BOZEMAN        MOSUNNY   20  13  74 CALM      29.81F
DILLON         SUNNY    N/A N/A N/A SE5       29.78F
W YELLOWSTONE  CLOUDY    25  21  86 S8        29.83F FOG     WCI  16
ENNIS          PTSUNNY   32  21  64 S21       29.82F WCI  20
TWIN BRIDGES     N/A     23  11  60 SE3       29.81F
$$

MTZ009-010-012-014-046-048-049-054-222000-
EAST SLOPES AND CENTRAL MONTANA

CITY           SKY/WX    TMP DP  RH WIND       PRES   REMARKS
CUT BANK       CLOUDY    24  23  96 E7        29.78F FOG     WCI  16
GREAT FALLS    SUNNY     32  23  69 E6        29.79F WCI  26
MALMSTROM AFB  MOSUNNY   28  26  92 NE6       29.80F WCI  21
HELENA         SUNNY     19  12  74 NE3       29.82F HAZE
AUGUSTA          N/A     26  21  80 S6        29.75F WCI  20
BOWMANS CRNR     N/A     30  20  67 S16       29.73F WCI  19
CHOTEAU          N/A     25  25 100 CALM      29.80F FOG
CONRAD           N/A     24  23  96 CALM      29.84F VSB 0
POWER            N/A     24  21  87 E3        29.78F
RAYNESFORD       N/A     36  22  57 NW3       29.77F
ULM              N/A     30  24  77 MISG      29.79F
$$

MTZ011-013-016-021-045-047-050-051-222000-
NORTH CENTRAL MONTANA

CITY           SKY/WX    TMP DP  RH WIND       PRES   REMARKS
HAVRE          CLOUDY    29  28  96 W6        29.85F WCI  23
LEWISTOWN      SUNNY     35  21  56 CALM      29.79F
CHINOOK          N/A     30  27  86 W8        29.86F WCI  23
DENTON         FOG       24  24  97 E6        29.78F VSB 3/16WCI  17
FORT BENTON      N/A     28  25  86 MISG      29.85F
GEYSER           N/A     29  25  84 E7        29.78F WCI  22
GRASS RANGE      N/A     39  20  45 W13       29.76F WCI  31
JUDITH GAP     PTSUNNY   36  19  50 W15       29.77F WCI  27
ROY              N/A     31  26  81 MISG      29.80F
STANFORD         N/A     33  21  61 E6        29.77F WCI  28
WINIFRED       FOG       24  23  99 W6        29.81F VSB 1/8 WCI  17
$$

MTZ017>020-022>027-061-062-222000-
NORTHEAST MONTANA

CITY           SKY/WX    TMP DP  RH WIND       PRES   REMARKS
GLASGOW        CLOUDY    30  24  78 NW16      29.84S WCI  19
JORDAN           N/A     30  25  81 NW13      29.84F WCI  20
SIDNEY         CLOUDY    31  26  82 W10       29.83F WCI  22
WOLF POINT     CLOUDY    31  26  82 W12       29.84F WCI  22
PLENTYWOOD       N/A    N/A N/A N/A W15       29.78S
POPLAR           N/A     28  27  93 W14       29.84S WCI  17
SCOBEY           N/A     28  19  69 W14       29.79S WCI  17
$$

MTZ028>42-056>058-222000-
SOUTHCENTRAL AND SOUTHEAST MONTANA

CITY           SKY/WX    TMP DP  RH WIND       PRES   REMARKS
BAKER          FOG       23  21  92 NW14      29.84S VSB 1/2 WCI  11
BILLINGS       MOSUNNY   32  19  58 S8        29.84F WCI  25
LIVINGSTON     SUNNY     41  15  35 SW15G24   29.78F
MILES CITY     MIX PCPN  22  19  89 NW6       29.88F VSB 1/4 WCI  14
BIG TIMBER     SUNNY     41  14  33 W14       29.81F
EKALAKA          N/A     27  18  69 W7        29.81F WCI  20
FORSYTH          N/A     19  16  86 NE6       29.86F WCI  11
HARLOWTON        N/A     37  19  47 W8        29.79F WCI  31
LAUREL           N/A     29  15  55 SW1       29.83F
ROUNDUP          N/A     37  19  48 S7        29.75F WCI  31
$$

REGIONAL REPORTS...DAKOTAS

CITY           SKY/WX    TMP DP  RH WIND       PRES   REMARKS
WILLISTON      CLOUDY    31  27  85 W14       29.80F WCI  21
MINOT          CLOUDY    33  30  88 W10       29.75F WCI  25
DICKINSON      CLOUDY    26  24  92 NW17      29.78F WCI  13
BEACH          CLOUDY    27  27 100 W13       29.85S WCI  16
CROSBY         CLOUDY    30  30 100 W13       29.78F WCI  20
TIOGA          CLOUDY    28  28 100 W15       29.78R WCI  17
WATFORD CITY   CLOUDY    28  27  93 W17       29.80F WCI  16
BISMARCK       CLOUDY    33  29  85 W7        29.80F WCI  27
GRAND FORKS    CLOUDY    35  29  78 W7        29.73F WCI  29
FARGO          CLOUDY    36  32  85 W8        29.74F FOG     WCI  30
BUFFALO SD       N/A     31  24  75 W6        29.76F WCI  25
RAPID CITY     SUNNY     42  22  44 CALM      29.84F
$$

REGIONAL REPORTS...WYOMING/IDAHO/WASHINGTON

CITY           SKY/WX    TMP DP  RH WIND       PRES   REMARKS
GILLETTE       SUNNY     38  23  55 W9        29.85S WCI  31
SHERIDAN       SUNNY     33  22  63 SW12      29.84F WCI  24
BUFFALO WY     SUNNY     35  20  54 S13       29.84F WCI  26
CODY           SUNNY     38  13  35 SW8       29.83F
YELLOWSTONE LA   N/A     20  17  88 CALM      29.84F
IDAHO FALLS    MOSUNNY   24  20  84 N6        29.86F WCI  17
SALMON         CLOUDY    16  12  86 CALM      29.79F
BOISE          CLOUDY    38  28  67 SE22G35   29.66F WCI  27
SPOKANE        PTSUNNY   37  30  75 E9        29.62F WCI  30
$$

REGIONAL REPORTS...ALBERTA

CITY           SKY/WX    TMP DP  RH WIND       PRES   REMARKS
EDMONTON       CLOUDY    16   9  73 E2        29.93F
CALGARY        CLOUDY    23  21  93 E2        29.81F FOG
LETHBRIDGE     CLOUDY    27  25  93 CALM      29.83F FOG
MEDICINE HAT   CLOUDY    27  25  93 N7        29.85F WCI  19
WATERTON GATE    N/A     25  23  93 N5          N/A
CARDSTON         N/A     25  23  93 NE2         N/A
MILK RIVER       N/A     27  25  93 N1          N/A
ONEFOUR          N/A     27  27 100 NW6         N/A  WCI  20
$$

REGIONAL REPORTS...SASKATCHEWAN

CITY           SKY/WX    TMP DP  RH WIND       PRES   REMARKS
SWIFT CURRENT  CLOUDY    23  21  93 NW15      29.78S WCI  10
REGINA         CLOUDY    28  23  80 NW17      29.75S WCI  16
SASKATOON      FLURRIES  21  16  79 N16G22    29.82S WCI   7
VAL MARIE        N/A     27  25  93 NW6         N/A  WCI  20
ROCKGLEN         N/A     25  23  93 NW10        N/A  WCI  15
ASSINIBOIA       N/A     18  16  93 NE1         N/A
$$




USA.gov is the U.S. government's official web portal to all federal, state and local government web resources and services.